TimeCST,TemperatureF,Dew PointF,Humidity,Sea Level PressureIn,VisibilityMPH,Wind Direction,Wind SpeedMPH,Gust SpeedMPH,PrecipitationIn,Events,Conditions,WindDirDegrees,DateUTC
12:53 AM,32.0,27.0,82,29.60,10.0,West,10.4,-,N/A,,Overcast,270,2013-02-18 06:53:00
1:32 AM,33.8,28.4,81,29.56,10.0,West,13.8,-,N/A,,Overcast,280,2013-02-18 07:32:00
1:53 AM,35.1,30.0,82,29.60,9.0,WNW,16.1,-,N/A,,Overcast,300,2013-02-18 07:53:00
2:53 AM,35.1,28.9,78,29.61,9.0,WNW,16.1,-,N/A,,Overcast,300,2013-02-18 08:53:00
3:53 AM,32.0,26.1,79,29.67,10.0,NW,32.2,40.3,N/A,,Overcast,320,2013-02-18 09:53:00
4:21 AM,26.6,19.4,74,29.65,10.0,NNW,28.8,36.8,N/A,,Mostly Cloudy,330,2013-02-18 10:21:00
4:53 AM,23.0,15.1,72,29.74,10.0,NNW,24.2,39.1,N/A,,Scattered Clouds,330,2013-02-18 10:53:00
5:40 AM,21.2,15.8,80,29.72,10.0,NNW,29.9,35.7,N/A,,Mostly Cloudy,330,2013-02-18 11:40:00
5:53 AM,21.2,14.0,74,29.74,10.0,NNW,25.3,34.5,N/A,,Mostly Cloudy,330,2013-02-18 11:53:00
6:03 AM,19.4,12.2,74,29.75,10.0,NNW,21.9,32.2,N/A,,Scattered Clouds,330,2013-02-18 12:03:00
6:53 AM,19.0,10.9,71,29.81,10.0,NNW,24.2,31.1,N/A,,Clear,330,2013-02-18 12:53:00
7:53 AM,17.1,9.0,71,29.84,10.0,NW,27.6,33.4,N/A,,Clear,320,2013-02-18 13:53:00
8:53 AM,16.0,7.0,68,29.88,10.0,NNW,21.9,33.4,N/A,,Partly Cloudy,330,2013-02-18 14:53:00
9:25 AM,15.8,6.8,68,29.85,10.0,NNW,29.9,35.7,N/A,,Mostly Cloudy,330,2013-02-18 15:25:00
9:53 AM,16.0,7.0,68,29.93,10.0,NNW,21.9,34.5,N/A,,Overcast,330,2013-02-18 15:53:00
10:53 AM,16.0,7.0,68,29.95,10.0,NNW,25.3,41.4,N/A,,Overcast,330,2013-02-18 16:53:00
11:28 AM,15.8,6.8,68,29.91,1.8,NNW,21.9,29.9,0.00,Snow,Light Snow,340,2013-02-18 17:28:00
11:33 AM,15.8,8.6,73,29.91,0.8,NNW,24.2,34.5,0.00,Snow,Light Snow,330,2013-02-18 17:33:00
11:48 AM,14.0,8.6,79,29.92,0.2,NW,29.9,35.7,N/A,Snow,Heavy Snow,320,2013-02-18 17:48:00
11:53 AM,14.0,8.1,77,29.99,0.2,NNW,28.8,35.7,0.00,Snow,Heavy Snow,330,2013-02-18 17:53:00
12:41 PM,12.2,6.8,79,29.94,0.5,NNW,25.3,35.7,0.00,Snow,Snow,340,2013-02-18 18:41:00
12:50 PM,12.2,8.6,85,29.94,0.2,NNW,28.8,35.7,0.00,Snow,Heavy Snow,330,2013-02-18 18:50:00
12:53 PM,12.9,8.1,81,30.00,0.2,NNW,28.8,35.7,0.00,Snow,Heavy Snow,330,2013-02-18 18:53:00
1:21 PM,12.2,6.8,79,29.94,0.5,NNW,21.9,33.4,0.00,Snow,Snow,330,2013-02-18 19:21:00
1:33 PM,12.2,6.8,79,29.95,0.8,NNW,25.3,33.4,0.00,Snow,Light Snow,340,2013-02-18 19:33:00
1:53 PM,14.0,7.0,74,30.00,1.0,NNW,26.5,35.7,0.00,Snow,Light Snow,330,2013-02-18 19:53:00
2:10 PM,14.0,6.8,73,29.94,2.0,NNW,20.7,34.5,0.00,Snow,Blowing Snow,340,2013-02-18 20:10:00
2:21 PM,15.8,6.8,68,29.95,3.0,NNW,23.0,35.7,0.00,Snow,Blowing Snow,340,2013-02-18 20:21:00
2:53 PM,14.0,6.1,71,30.01,6.0,NNW,23.0,32.2,0.00,Snow,Light Snow,340,2013-02-18 20:53:00
3:05 PM,15.8,6.8,68,29.96,1.8,NNW,24.2,31.1,0.00,Snow,Light Snow,340,2013-02-18 21:05:00
3:13 PM,15.8,6.8,68,29.96,1.2,NNW,23.0,31.1,0.00,Snow,Light Snow,330,2013-02-18 21:13:00
3:18 PM,14.0,6.8,73,29.96,2.0,North,26.5,31.1,0.00,Snow,Light Snow,350,2013-02-18 21:18:00
3:21 PM,14.0,6.8,73,29.97,1.2,NNW,20.7,31.1,0.00,Snow,Light Snow,340,2013-02-18 21:21:00
3:32 PM,12.2,6.8,79,29.97,0.5,North,20.7,29.9,0.00,Snow,Snow,350,2013-02-18 21:32:00
3:42 PM,12.2,6.8,79,29.97,0.2,NNW,33.4,41.4,0.00,Snow,Heavy Snow,330,2013-02-18 21:42:00
3:53 PM,10.9,3.9,73,30.04,0.5,NNW,29.9,41.4,0.00,Snow,Snow,330,2013-02-18 21:53:00
4:07 PM,10.4,3.2,73,29.99,1.2,NNW,27.6,34.5,0.00,Snow,Blowing Snow,330,2013-02-18 22:07:00
4:13 PM,10.4,3.2,73,29.99,2.0,NNW,20.7,34.5,0.00,Snow,Blowing Snow,330,2013-02-18 22:13:00
4:17 PM,10.4,3.2,73,30.00,3.0,NNW,20.7,32.2,0.00,Snow,Blowing Snow,330,2013-02-18 22:17:00
4:26 PM,10.4,3.2,73,30.00,6.0,NNW,26.5,35.7,0.00,Snow,Blowing Snow,330,2013-02-18 22:26:00
4:34 PM,10.4,5.0,79,30.00,1.5,NNW,21.9,35.7,0.00,Snow,Blowing Snow,340,2013-02-18 22:34:00
4:38 PM,10.4,5.0,79,30.01,0.8,NNW,21.9,29.9,0.00,Snow,Light Snow,330,2013-02-18 22:38:00
4:48 PM,10.4,3.2,73,30.01,1.5,NNW,23.0,34.5,0.00,Snow,Light Snow,340,2013-02-18 22:48:00
4:53 PM,10.9,1.9,67,30.08,3.0,NNW,19.6,32.2,0.00,Snow,Blowing Snow,340,2013-02-18 22:53:00
5:17 PM,10.4,3.2,73,30.01,1.8,NNW,28.8,34.5,N/A,Snow,Blowing Snow,330,2013-02-18 23:17:00
5:37 PM,10.4,3.2,73,30.04,0.5,NNW,24.2,38.0,0.00,Snow,Snow,340,2013-02-18 23:37:00
5:48 PM,8.6,1.4,73,30.04,1.5,NNW,26.5,33.4,0.00,Snow,Blowing Snow,330,2013-02-18 23:48:00
5:53 PM,9.0,1.9,73,30.12,2.0,NNW,26.5,34.5,0.00,Snow,Blowing Snow,330,2013-02-18 23:53:00
5:59 PM,8.6,1.4,73,30.05,4.0,NNW,24.2,34.5,N/A,Snow,Blowing Snow,340,2013-02-18 23:59:00
6:53 PM,7.0,-0.9,70,30.14,10.0,NNW,19.6,29.9,0.00,,Scattered Clouds,340,2013-02-19 00:53:00
7:26 PM,6.8,-2.2,67,30.08,10.0,NNW,21.9,-,N/A,,Mostly Cloudy,330,2013-02-19 01:26:00
7:53 PM,7.0,-0.9,70,30.16,10.0,NW,21.9,31.1,N/A,,Overcast,320,2013-02-19 01:53:00
8:53 PM,8.1,-0.9,67,30.17,10.0,NNW,21.9,-,N/A,,Overcast,330,2013-02-19 02:53:00
9:53 PM,7.0,-0.0,73,30.19,5.0,NNW,20.7,32.2,0.00,,Haze,330,2013-02-19 03:53:00
10:53 PM,6.1,-0.9,73,30.21,6.0,NNW,23.0,31.1,0.00,,Haze,330,2013-02-19 04:53:00
11:53 PM,5.0,-2.9,70,30.25,5.0,NNW,26.5,32.2,N/A,,Haze,330,2013-02-19 05:53:00